Vorticity
8 7 7 6 4 4 5 6 4 4 5 6 6 8 4 4 5 7 6 3 5 7
8 9 10 5 5 3 4 4 6 4 5 5 6 4 7 5 4 5 4 5 7 2
7 7 5 3 8 9 7 5 5 8 6 7 7 6 5 7 6 6 4 5 4 7
9 9 8 15 6 35 15 8 12 9 6 6 5 5 7 3 7 8 7 3 4 3
7 7 11 5 20 0 7 5 21 10 8 5 -0 13 20 10 16 5 3 8 11 9
15 9 6 10 5 -37 -11 10 13 11 11 8 4 -19 11 -18 6 -7 2 3 10 -0
16 21 14 6 21 3 -10 27 17 14 2 9 3 1 5 8 4 5 5 3 2 2
3 20 24 13 21 16 7 -5 23 34 26 25 30 22 14 8 7 5 5 5 6 7
31 -2 -12 -10 4 0 -0 44 21 -20 -18 -19 -8 15 2 8 18 14 13 17 16 15
-6 4 3 28 1 21 23 -3 2 14 28 -0 -5 2 1 8 18 19 9 16 17 14
32 16 11 18 25 20 3 15 -17 25 -12 5 6 9 4 14 6 7 -6 11 19 19
8 1 -5 3 15 16 3 23 19 12 12 4 11 13 12 13 9 11 20 14 12 10
13 13 4 8 11 19 12 -7 -12 -7 -5 5 1 3 15 17 12 21 21 9 14 12
10 4 11 14 19 13 1 4 7 10 16 15 13 13 -1 12 7 8 10 11 9 13
Height
5596 5604 5612 5618 5622 5628 5635 5642 5648 5653 5659 5665 5671 5675 5678 5682 5685 5689 5693 5696 5699 5702
5582 5589 5599 5606 5611 5614 5620 5627 5634 5640 5647 5652 5659 5664 5668 5672 5676 5680 5684 5687 5690 5693
5566 5576 5584 5591 5598 5604 5608 5614 5619 5626 5634 5640 5646 5652 5657 5662 5667 5671 5675 5678 5682 5684
5550 5559 5569 5574 5585 5590 5596 5601 5605 5612 5620 5627 5632 5639 5645 5650 5656 5660 5663 5667 5671 5675
5536 5545 5553 5563 5571 5576 5582 5588 5592 5600 5606 5613 5620 5625 5631 5636 5641 5646 5651 5656 5659 5663
5520 5529 5539 5549 5559 5562 5566 5575 5580 5587 5594 5600 5607 5611 5618 5622 5628 5633 5638 5642 5647 5651
5505 5514 5524 5534 5543 5549 5552 5559 5565 5570 5577 5584 5591 5596 5602 5607 5612 5618 5622 5627 5631 5635
5491 5501 5509 5518 5528 5535 5540 5545 5550 5557 5562 5568 5575 5581 5587 5592 5596 5602 5607 5612 5616 5620
5477 5486 5495 5503 5511 5518 5524 5531 5538 5545 5550 5556 5562 5568 5571 5577 5582 5588 5593 5597 5600 5604
5461 5470 5479 5488 5495 5503 5509 5517 5523 5530 5536 5542 5546 5551 5556 5562 5567 5572 5576 5581 5585 5589
5447 5455 5463 5471 5480 5488 5493 5501 5508 5513 5520 5526 5530 5536 5542 5548 5553 5558 5562 5567 5571 5574
5433 5441 5449 5456 5464 5471 5477 5484 5490 5497 5503 5510 5517 5523 5529 5534 5538 5543 5548 5552 5556 5560
5420 5427 5435 5443 5450 5457 5464 5470 5477 5484 5489 5496 5502 5509 5514 5519 5524 5530 5535 5538 5542 5546
5408 5414 5420 5428 5436 5443 5449 5455 5462 5469 5474 5481 5489 5495 5500 5505 5510 5515 5520 5524 5529 5533